Torna al catalogo

DMSP 5D-2 F13 DEB

AttivoSSO
NORAD 42319·DEBRIS·🇺🇸 United States

Lanciato Mar 24, 1995 da Vandenberg Space Force Base

Loading…

Prossimi Passaggi (prossime 24 ore)

TLE

AggiornatoSource: Space-Track

Epoca: Sep 13, 2026, 09:04 UTC

1 42319U 95015JM  26256.37778018  .00004147  00000-0  13515-2 0  9994
2 42319  98.8772 306.1105 0024384  65.8392 294.5340 14.39072319590990

Traccia DMSP 5D-2 F13 DEB in tempo reale con AllMySat

Download on the App Store